* Astronomy

Members Login
Post Info TOPIC: Asteroid 2013 CV82


L

Posts: 131433
Date:
Asteroid 2013 CV82
Permalink  
 


Orbital elements:
2013 CV82
Epoch 2013 Jan. 28.0 TT = JDT 2456320.5                 MPC
M   0.94725              (2000.0)            P               Q
n   0.00065732     Peri.  285.82577     +0.42082235     -0.88365912
a 131.0047359      Node   137.34108     +0.90406930     +0.38994493
e   0.9411322      Incl.   17.61577     +0.07461403     +0.25901644
P1499              H   11.5           G   0.15
From 15 observations 2013 Feb. 3-11.

MPEC 2013 - C51

Key to Orbital elements



__________________
Page 1 of 1  sorted by
Quick Reply

Please log in to post quick replies.



Create your own FREE Forum
Report Abuse
Powered by ActiveBoard